EW4785 Weather Reports


Display with metric or nautical units.
time (UTC)temp
F
wind
direction
speed
MPH
gust
MPH
rain 1hr
in
rain 24hr
in
rain mn
in
humidity
%
barometer
mb
20260510150046 76 236 0.0 3.0 0.00 0.00 0.00 50 1016.2
20260510144546 75 309 2.0 9.0 0.00 0.00 0.00 49 1016.1
20260510143030 74 186 0.0 3.0 0.00 0.00 0.00 53 1016.0
20260510141526 72 76 1.0 6.0 0.00 0.00 0.00 60 1016.0
20260510140022 70 71 0.0 3.0 0.00 0.00 0.00 72 1016.1
20260510134518 67 298 0.0 2.0 0.00 0.00 0.00 77 1016.1
20260510133012 65 324 0.0 1.0 0.00 0.00 0.00 86 1016.0
20260510131509 63 247 0.0 3.0 0.00 0.00 0.00 92 1016.0
20260510130006 61 140 0.0 0.0 0.00 0.00 0.00 96 1015.9
20260510124505 61 184 0.0 0.0 0.00 0.00 0.00 97 1015.8
20260510123004 60 184 0.0 1.0 0.00 0.00 0.00 98 1015.5
20260510121609 59 184 0.0 1.0 0.00 0.00 0.00 98 1015.2
20260510120059 57 184 0.0 0.0 0.00 0.00 0.00 97 1014.9
20260510114616 57 184 0.0 0.0 0.00 0.00 0.00 97 1014.9
20260510113100 56 184 0.0 1.0 0.00 0.00 0.00 98 1014.7
20260510111554 55 184 0.0 0.0 0.00 0.00 0.00 96 1014.5
20260510110052 55 184 0.0 0.0 0.00 0.00 0.00 96 1014.1
20260510104557 56 184 0.0 0.0 0.00 0.00 0.00 96 1014.0
20260510103047 56 184 0.0 0.0 0.00 0.00 0.00 97 1013.7
20260510101547 56 184 0.0 1.0 0.00 0.00 0.00 97 1013.5
20260510100057 55 184 0.0 0.0 0.00 0.00 0.00 96 1013.3
20260510094551 56 184 0.0 1.0 0.00 0.00 0.00 95 1013.1
20260510093039 56 184 0.0 0.0 0.00 0.00 0.00 96 1013.0
20260510091538 57 184 0.0 0.0 0.00 0.00 0.00 96 1012.7
20260510090036 57 184 0.0 0.0 0.00 0.00 0.00 95 1012.7
20260510084536 57 184 0.0 0.0 0.00 0.00 0.00 95 1012.6
20260510083041 57 184 0.0 0.0 0.00 0.00 0.00 95 1012.6
20260510081534 57 184 0.0 0.0 0.00 0.00 0.00 94 1012.4
20260510080036 58 184 0.0 0.0 0.00 0.00 0.00 94 1012.3
20260510074536 59 184 0.0 0.0 0.00 0.00 0.00 94 1012.3
20260510073027 59 184 0.0 0.0 0.00 0.00 0.00 95 1012.4
20260510071528 59 184 0.0 0.0 0.00 0.00 0.00 95 1012.3
20260510070032 59 184 0.0 1.0 0.00 0.00 0.00 94 1012.3
20260510064525 59 184 0.0 0.0 0.00 0.00 0.00 93 1012.1
20260510063024 60 184 0.0 0.0 0.00 0.00 0.00 95 1012.2
20260510061527 59 184 0.0 0.0 0.00 0.00 0.00 95 1012.2
20260510060023 59 184 0.0 0.0 0.00 0.00 0.00 94 1012.1
20260510054521 59 184 0.0 0.0 0.00 0.00 0.00 93 1012.3
20260510053017 60 184 0.0 0.0 0.00 0.00 0.00 92 1012.6
20260510051517 60 184 0.0 0.0 0.00 0.00 0.00 93 1012.6
20260510050016 60 184 0.0 0.0 0.00 0.00 0.00 93 1012.7
20260510044515 60 184 0.0 0.0 0.00 0.00 0.00 92 1012.9
20260510043013 61 184 0.0 1.0 0.00 0.00 0.00 91 1012.7
20260510041512 61 184 0.0 2.0 0.00 0.00 0.00 91 1012.9
20260510040009 62 184 0.0 1.0 0.00 0.00 0.00 90 1012.8
20260510034509 62 184 0.0 2.0 0.00 0.00 0.00 90 1012.8
20260510033007 62 184 0.0 1.0 0.00 0.00 0.00 90 1012.6
20260510031507 62 184 0.0 0.0 0.00 0.00 0.00 90 1012.6
20260510030007 62 184 0.0 0.0 0.00 0.00 0.00 89 1012.6
20260510024512 62 184 0.0 1.0 0.00 0.00 0.00 89 1012.5
20260510023005 63 184 0.0 1.0 0.00 0.00 0.00 88 1012.4
20260510021506 63 184 0.0 1.0 0.00 0.00 0.00 87 1012.3
20260510020007 64 184 0.0 1.0 0.00 0.00 0.00 85 1012.1
20260510014504 64 184 0.0 1.0 0.00 0.00 0.00 85 1012.2
20260510013002 64 184 0.0 2.0 0.00 0.00 0.00 84 1011.7
20260510011503 65 184 0.0 2.0 0.00 0.00 0.00 83 1011.4
20260510010002 65 184 0.0 2.0 0.00 0.00 0.00 82 1011.1
20260510004501 66 184 0.0 2.0 0.00 0.00 0.00 81 1010.7
20260510003002 66 184 0.0 4.0 0.00 0.00 0.00 80 1010.8
20260510001600 67 176 0.0 2.0 0.00 0.00 0.00 79 1010.6
20260510000101 68 182 1.0 4.0 0.00 0.00 0.00 77 1010.6
20260509234611 68 177 2.0 4.0 0.00 0.00 0.00 76 1010.5
20260509233059 69 178 1.0 5.0 0.00 0.00 0.00 75 1010.5
20260509231558 70 170 1.0 5.0 0.00 0.00 0.00 74 1010.2
20260509230159 70 173 2.0 4.0 0.00 0.00 0.00 74 1010.3
20260509224557 71 129 1.0 6.0 0.00 0.00 0.00 73 1010.0
20260509223100 72 180 1.0 8.0 0.00 0.00 0.00 72 1009.9
20260509221555 72 186 1.0 8.0 0.00 0.00 0.00 73 1010.0
20260509214554 72 142 1.0 5.0 0.00 0.00 0.00 70 1009.9
20260509213055 72 188 2.0 8.0 0.00 0.00 0.00 70 1009.9
20260509211554 72 130 2.0 8.0 0.00 0.00 0.00 71 1010.0
20260509210058 72 161 3.0 8.0 0.00 0.00 0.00 70 1010.0
20260509204558 72 174 2.0 9.0 0.00 0.00 0.00 70 1009.7
20260509203046 71 241 2.0 5.0 0.00 0.00 0.00 71 1010.1
20260509201546 71 171 3.0 8.0 0.00 0.00 0.00 73 1010.2
20260509200044 70 164 1.0 5.0 0.00 0.00 0.00 73 1010.3
20260509194544 70 281 2.0 7.0 0.00 0.00 0.00 73 1010.3
20260509193044 70 140 2.0 8.0 0.00 0.00 0.00 72 1010.5
20260509191538 69 251 2.0 8.0 0.00 0.00 0.00 74 1010.8
20260509190037 69 185 1.0 4.0 0.00 0.00 0.00 74 1010.7
20260509184538 69 114 2.0 8.0 0.00 0.00 0.00 74 1010.9
20260509183036 69 103 3.0 7.0 0.00 0.00 0.00 73 1010.9
20260509181534 70 259 3.0 10.0 0.00 0.00 0.00 72 1011.1
20260509180033 69 183 3.0 9.0 0.00 0.00 0.00 73 1011.2
20260509174532 70 175 4.0 10.0 0.00 0.00 0.00 72 1011.4
20260509173033 69 182 3.0 10.0 0.00 0.00 0.00 75 1011.4
20260509171533 68 203 3.0 9.0 0.00 0.00 0.00 75 1011.6
20260509170028 69 120 3.0 9.0 0.00 0.00 0.00 72 1011.8
20260509164526 69 154 4.0 10.0 0.00 0.00 0.00 70 1011.9
20260509163024 69 189 3.0 9.0 0.00 0.00 0.00 69 1012.1
20260509161523 70 174 3.0 9.0 0.00 0.00 0.00 68 1012.3
20260509160024 68 159 3.0 11.0 0.00 0.00 0.00 69 1012.2
20260509154521 69 222 4.0 9.0 0.00 0.00 0.00 67 1012.4
20260509153026 68 173 3.0 12.0 0.00 0.00 0.00 69 1012.5
20260509151516 67 188 2.0 9.0 0.00 0.00 0.00 70 1012.3